Regional Weather Roundup
Issued by NWS Spokane, WA

Home | Current Version | Previous Version | Text Only | Print | Product List | Glossary On
Versions: 1 2 3 4 5 6 7 8 9 10 11 12 13 14 15 16 17 18 19 20 21 22 23 24 25 26 27 28 29 30 31 32 33 34 35 36 37 38 39 40 41 42 43 44 45 46 47 48 49 50
000
NZUS01 KOTX 260157
RWROTX
EASTERN WASHINGTON/NORTHERN IDAHO ROUNDUP
NATIONAL WEATHER SERVICE, SPOKANE WA
700 PM PDT FRI JUL 25 2014

Note: "fair" indicated few or no clouds below 12,000 feet with no
significant weather and/or obstructions to visibility.

...NORTHEAST WASHINGTON AND NORTHERN IDAHO PANHANDLE...

CITY           SKY/WX    TMP DP  RH WIND       PRES   REMARKS
SPOKANE INTL   MOSUNNY   76  36  23 W9        30.04S
SPOKANE DOWNTO SUNNY     78  36  21 SW8       30.03S
DEER PARK      SUNNY     76  38  25 E3        30.03F

...SOUTHEAST WASHINGTON AND SOUTHERN IDAHO PANHANDLE...

CITY           SKY/WX    TMP DP  RH WIND       PRES   REMARKS
WALLA WALLA    SUNNY     83  36  18 CALM      30.00F
PULLMAN/MOSCOW SUNNY     74  41  30 W3        30.07F
LOWELL           N/A     72  49  44 CALM      29.99S

...COLUMBIA BASIN...

CITY           SKY/WX    TMP DP  RH WIND       PRES   REMARKS
EPHRATA        SUNNY     80  42  25 SW8       29.99F
MOSES LAKE     SUNNY     80  41  24 SW5       30.00F
TRI CITIES     SUNNY     83  46  27 NE6       29.97F
HERMISTON      SUNNY     83  35  18 E3        29.97F
PENDLETON      SUNNY     81  35  19 W9        30.00S

...EAST SLOPES CASCADES...

CITY           SKY/WX    TMP DP  RH WIND       PRES   REMARKS
THE DALLES     SUNNY     82  48  30 W13       29.96S
YAKIMA         SUNNY     83  44  25 S5        29.98S
ELLENSBURG       N/A     82  48  30 W5        30.00F
OMAK           SUNNY     80  39  23 CALM      29.98S

...SOUTHERN BRITISH COLUMBIA...

CITY           SKY/WX    TMP DP  RH WIND       PRES   REMARKS

...WESTERN MONTANA...

CITY           SKY/WX    TMP DP  RH WIND       PRES   REMARKS
MISSOULA       SUNNY     76  36  23 NW14      30.04R

...NEIGHBORING CITIES...

CITY           SKY/WX    TMP DP  RH WIND       PRES   REMARKS
SEATTLE        MOSUNNY   72  51  47 W6        30.10F



USA.gov is the U.S. government's official web portal to all federal, state and local government web resources and services.